User: anonymous   Login
Location: Unspecified
(0.0000°N, 0.0000°E)
Time: 02:49:35
(UTC+00:00)
Language:

OPTOS - Orbit

View from above orbital plane
View from above orbital plane
View from above satellite
View from above satellite

Ground track
Ground track

The orbit data is extracted from the following two-line orbital elements,

1 39429U 13066P   17147.43819977 +.00000429 +00000-0 +84241-4 0  9999
2 39429 097.6625 150.4828 0148574 101.0053 260.7906 14.60442732187088
Epoch (UTC): 27 May 2017 10:31:00
Eccentricity: 0.0148574
inclination: 97.6625°
perigee height: 587 km
apogee height: 797 km
right ascension of ascending node: 150.4828°
argument of perigee: 101.0053°
revolutions per day: 14.60442732
mean anomaly at epoch: 260.7906°
orbit number at epoch: 18708

The dashed part of the orbit path shows where the satellite is in the earth's shadow,  

DLR